STARLINK-37496, 69297

Orbit data source: Space-Track

STARLINK-37496, 69297 is a payload satellite owned by SpaceX/Seattle (US) in SSO that was launched on Sat, 30 May 2026 UTC via an FALCON 9 launch vehicle from the Air Force Western Test Range (AFWTR). Payload-class satellites include a variety of spacecraft equipped with specific instruments for various scientific and technological missions. These include communications satellites like Starlink; space stations such as the ISS; scientific satellites like the Hubble; Earth observation satellites from companies like Planet Labs, Umbra, and HawkEye 360; GPS; miniature CubeSats for education and research; and military/defense satellites.

Loading next visibility...
Identifier
69297, 2026-119B
Orbit
SSO
Country
Flag of USUS
Related business
Manufacturer
SpaceX/Seattle
Mission
Operational Commercial Communications
Bus & Motor
STARLINK V2MO, Unknown motor
Mass
575 kg wet, ~530 kg dry
Launch date (UTC)
2026-05-30 (4 months ago)
Launch vehicle
FALCON 9
Launch site
Air Force Western Test Range (AFWTR)
Object type
Payload
Rocket body
Debris
Shape & HBR
Box + 1 Pan, 17.7 m
Radar Cross Section
41.120 m², Large (>1 m²)

Expand to show TLE details & history
Last TLE update: 17 hours ago

TLE from 17 hours ago
0 STARLINK-37496
1 69297U 26119B   26263.59580176  .00006067  00000-0  19004-3 0  9998
2 69297  97.2813 288.4096 0001500 113.7297 246.4103 15.33456194 18682
Epoch: 2026-09-20T14:17Z
TLE epoch observation values (Epoch: 2026-09-20T14:17:57.272Z)
Latitude
-0.00002°
Longitude
74.43325°
Altitude
469.033 km
Speed
7.631 km/s
True Right ascension
19h 13m 38s
True Declination
0° 00' 00"
Sunlit
Object was in daylight at epoch
Visualization orbit readout
Latitude
Unknown
Longitude
Unknown
Altitude
Unknown
Speed
Unknown
Apparent Right ascension
Unknown
Apparent Declination
Unknown
Sunlit
N/A
Visualization observer readout
Local Sidereal Time
00:09:51
Azimuth
Unknown
Elevation
Unknown
Doppler factor
Unknown
Orbital elements
Apogee altitude
463.479 km
Perigee altitude
461.426 km
Semi-major axis
6,840.589 km
Eccentricity
0.00015
Inclination
97.2813°
RAAN
288.4096°
Arg. of periapsis
113.7297°
True anomaly
246.39455°
Mean anomaly
246.4103°
Eccentric anomaly
246.40242°
Mean motion
3.83621 °/min
Orbital period
93.84 mins
BSTAR
0.00019004
Loading maneuver chart data...
Computing Atmospheric mass density...
Loading historical data...
Loading historical data...
Loading historical data...
Loading historical data...
Loading historical data...
Loading historical data...
Loading historical data...

Documentation

Showing up to 5 results
|